Time,TemperatureF,DewpointF,PressureIn,WindDirection,WindDirectionDegrees,WindSpeedMPH,WindSpeedGustMPH,Humidity,HourlyPrecipIn,Conditions,Clouds,dailyrainin,SoftwareType,DateUTC
2013-04-11 00:14:00,-999.0,-99.9,30.11,North,-999,-999.0,-999.0,-999,-99.99,,,0.00,weatherlink.com 1.10,2013-04-11 04:14:00,
2013-04-11 00:29:00,-999.0,-99.9,30.11,North,-999,-999.0,-999.0,-999,-99.99,,,0.00,weatherlink.com 1.10,2013-04-11 04:29:00,
2013-04-11 00:44:00,-999.0,-99.9,30.11,North,-999,-999.0,-999.0,-999,-99.99,,,0.00,weatherlink.com 1.10,2013-04-11 04:44:00,
2013-04-11 00:59:00,-999.0,-99.9,30.11,North,-999,-999.0,-999.0,-999,-99.99,,,0.00,weatherlink.com 1.10,2013-04-11 04:59:00,
2013-04-11 01:14:00,-999.0,-99.9,30.11,North,-999,-999.0,-999.0,-999,-99.99,,,0.00,weatherlink.com 1.10,2013-04-11 05:14:00,
2013-04-11 01:30:00,-999.0,-99.9,30.12,North,-999,-999.0,-999.0,-999,-99.99,,,0.00,weatherlink.com 1.10,2013-04-11 05:30:00,
2013-04-11 01:45:00,-999.0,-99.9,30.12,North,-999,-999.0,-999.0,-999,-99.99,,,0.00,weatherlink.com 1.10,2013-04-11 05:45:00,
2013-04-11 02:00:00,-999.0,-99.9,30.11,North,-999,-999.0,-999.0,-999,-99.99,,,0.00,weatherlink.com 1.10,2013-04-11 06:00:00,
2013-04-11 02:15:00,-999.0,-99.9,30.11,North,-999,-999.0,-999.0,-999,-99.99,,,0.00,weatherlink.com 1.10,2013-04-11 06:15:00,
2013-04-11 02:30:00,-999.0,-99.9,30.10,North,-999,-999.0,-999.0,-999,-99.99,,,0.00,weatherlink.com 1.10,2013-04-11 06:30:00,
2013-04-11 02:45:00,-999.0,-99.9,30.11,North,-999,-999.0,-999.0,-999,-99.99,,,0.00,weatherlink.com 1.10,2013-04-11 06:45:00,
2013-04-11 03:00:00,-999.0,-99.9,30.10,North,-999,-999.0,-999.0,-999,-99.99,,,0.00,weatherlink.com 1.10,2013-04-11 07:00:00,
2013-04-11 03:15:00,-999.0,-99.9,30.10,North,-999,-999.0,-999.0,-999,-99.99,,,0.00,weatherlink.com 1.10,2013-04-11 07:15:00,
2013-04-11 03:30:00,-999.0,-99.9,30.09,North,-999,-999.0,-999.0,-999,-99.99,,,0.00,weatherlink.com 1.10,2013-04-11 07:30:00,
2013-04-11 03:45:00,-999.0,-99.9,30.09,North,-999,-999.0,-999.0,-999,-99.99,,,0.00,weatherlink.com 1.10,2013-04-11 07:45:00,
2013-04-11 04:00:00,-999.0,-99.9,30.08,North,-999,-999.0,-999.0,-999,-99.99,,,0.00,weatherlink.com 1.10,2013-04-11 08:00:00,
2013-04-11 04:15:00,-999.0,-99.9,30.09,North,-999,-999.0,-999.0,-999,-99.99,,,0.00,weatherlink.com 1.10,2013-04-11 08:15:00,
2013-04-11 04:30:00,-999.0,-99.9,30.09,North,-999,-999.0,-999.0,-999,-99.99,,,0.00,weatherlink.com 1.10,2013-04-11 08:30:00,
2013-04-11 04:46:00,-999.0,-99.9,30.10,North,-999,-999.0,-999.0,-999,-99.99,,,0.00,weatherlink.com 1.10,2013-04-11 08:46:00,
2013-04-11 05:01:00,-999.0,-99.9,30.11,North,-999,-999.0,-999.0,-999,-99.99,,,0.00,weatherlink.com 1.10,2013-04-11 09:01:00,
2013-04-11 05:31:00,-999.0,-99.9,30.13,North,-999,-999.0,-999.0,-999,-99.99,,,0.00,weatherlink.com 1.10,2013-04-11 09:31:00,
2013-04-11 06:01:00,-999.0,-99.9,30.12,North,-999,-999.0,-999.0,-999,-99.99,,,0.00,weatherlink.com 1.10,2013-04-11 10:01:00,
2013-04-11 06:16:00,-999.0,-99.9,30.12,North,-999,-999.0,-999.0,-999,-99.99,,,0.00,weatherlink.com 1.10,2013-04-11 10:16:00,
2013-04-11 06:31:00,-999.0,-99.9,30.11,North,-999,-999.0,-999.0,-999,-99.99,,,0.00,weatherlink.com 1.10,2013-04-11 10:31:00,
2013-04-11 06:46:00,-999.0,-99.9,30.11,North,-999,-999.0,-999.0,-999,-99.99,,,0.00,weatherlink.com 1.10,2013-04-11 10:46:00,
2013-04-11 07:01:00,-999.0,-99.9,30.11,North,-999,-999.0,-999.0,-999,-99.99,,,0.00,weatherlink.com 1.10,2013-04-11 11:01:00,
2013-04-11 07:16:00,-999.0,-99.9,30.12,North,-999,-999.0,-999.0,-999,-99.99,,,0.00,weatherlink.com 1.10,2013-04-11 11:16:00,
2013-04-11 07:31:00,-999.0,-99.9,30.11,North,-999,-999.0,-999.0,-999,-99.99,,,0.00,weatherlink.com 1.10,2013-04-11 11:31:00,
2013-04-11 07:46:00,-999.0,-99.9,30.11,North,-999,-999.0,-999.0,-999,-99.99,,,0.00,weatherlink.com 1.10,2013-04-11 11:46:00,
2013-04-11 08:02:00,-999.0,-99.9,30.10,North,-999,-999.0,-999.0,-999,-99.99,,,0.00,weatherlink.com 1.10,2013-04-11 12:02:00,
2013-04-11 08:17:00,-999.0,-99.9,30.09,North,-999,-999.0,-999.0,-999,-99.99,,,0.00,weatherlink.com 1.10,2013-04-11 12:17:00,
2013-04-11 08:32:00,-999.0,-99.9,30.11,North,-999,-999.0,-999.0,-999,-99.99,,,0.00,weatherlink.com 1.10,2013-04-11 12:32:00,
2013-04-11 08:47:00,-999.0,-99.9,30.16,North,-999,-999.0,-999.0,-999,-99.99,,,0.00,weatherlink.com 1.10,2013-04-11 12:47:00,
2013-04-11 09:02:00,-999.0,-99.9,30.18,North,-999,-999.0,-999.0,-999,-99.99,,,0.00,weatherlink.com 1.10,2013-04-11 13:02:00,
2013-04-11 09:17:00,-999.0,-99.9,30.16,North,-999,-999.0,-999.0,-999,-99.99,,,0.00,weatherlink.com 1.10,2013-04-11 13:17:00,
2013-04-11 09:32:00,-999.0,-99.9,30.12,North,-999,-999.0,-999.0,-999,-99.99,,,0.00,weatherlink.com 1.10,2013-04-11 13:32:00,
2013-04-11 09:47:00,-999.0,-99.9,30.11,North,-999,-999.0,-999.0,-999,-99.99,,,0.00,weatherlink.com 1.10,2013-04-11 13:47:00,
2013-04-11 10:02:00,-999.0,-99.9,30.12,North,-999,-999.0,-999.0,-999,-99.99,,,0.00,weatherlink.com 1.10,2013-04-11 14:02:00,
2013-04-11 10:17:00,28.0,19.0,30.10,ESE,102,11.0,-999.0,68,-99.99,,,0.00,weatherlink.com 1.10,2013-04-11 14:17:00,
2013-04-11 10:32:00,28.5,19.0,30.12,ENE,75,7.0,-999.0,67,-99.99,,,0.00,weatherlink.com 1.10,2013-04-11 14:32:00,
2013-04-11 10:47:00,28.6,19.0,30.10,ENE,75,18.0,-999.0,68,-99.99,,,0.00,weatherlink.com 1.10,2013-04-11 14:47:00,
2013-04-11 11:02:00,28.5,18.0,30.10,SE,132,12.0,-999.0,66,-99.99,,,0.00,weatherlink.com 1.10,2013-04-11 15:02:00,
2013-04-11 11:17:00,28.4,19.0,30.10,East,101,22.0,-999.0,67,-99.99,,,0.00,weatherlink.com 1.10,2013-04-11 15:17:00,
2013-04-11 11:32:00,28.7,20.0,30.09,East,80,11.0,-999.0,70,-99.99,,,0.00,weatherlink.com 1.10,2013-04-11 15:32:00,
2013-04-11 11:47:00,28.3,19.0,30.11,ENE,74,13.0,-999.0,69,-99.99,,,0.00,weatherlink.com 1.10,2013-04-11 15:47:00,
2013-04-11 12:02:00,28.4,19.0,30.10,ESE,121,19.0,-999.0,69,-99.99,,,0.00,weatherlink.com 1.10,2013-04-11 16:02:00,
2013-04-11 12:17:00,28.7,20.0,30.11,SE,131,17.0,-999.0,70,-99.99,,,0.00,weatherlink.com 1.10,2013-04-11 16:17:00,
2013-04-11 12:32:00,28.8,20.0,30.09,ESE,119,7.0,-999.0,69,-99.99,,,0.00,weatherlink.com 1.10,2013-04-11 16:32:00,
2013-04-11 12:47:00,29.4,21.0,30.10,ESE,118,21.0,-999.0,71,-99.99,,,0.00,weatherlink.com 1.10,2013-04-11 16:47:00,
2013-04-11 13:02:00,28.9,19.0,30.09,East,95,17.0,-999.0,67,-99.99,,,0.00,weatherlink.com 1.10,2013-04-11 17:02:00,
2013-04-11 13:17:00,28.8,19.0,30.09,East,101,12.0,-999.0,68,-99.99,,,0.00,weatherlink.com 1.10,2013-04-11 17:17:00,
2013-04-11 13:32:00,29.0,20.0,30.08,ESE,121,17.0,-999.0,68,-99.99,,,0.00,weatherlink.com 1.10,2013-04-11 17:32:00,
2013-04-11 13:47:00,29.7,20.0,30.08,East,95,8.0,-999.0,66,-99.99,,,0.00,weatherlink.com 1.10,2013-04-11 17:47:00,
2013-04-11 14:17:00,29.9,19.0,30.07,East,94,13.0,-999.0,65,-99.99,,,0.00,weatherlink.com 1.10,2013-04-11 18:17:00,
2013-04-11 14:32:00,29.9,20.0,30.06,SE,137,15.0,-999.0,66,-99.99,,,0.00,weatherlink.com 1.10,2013-04-11 18:32:00,
2013-04-11 14:47:00,29.9,19.0,30.05,SE,134,12.0,-999.0,65,-99.99,,,0.00,weatherlink.com 1.10,2013-04-11 18:47:00,
2013-04-11 15:03:00,29.9,19.0,30.05,SE,129,14.0,-999.0,64,-99.99,,,0.00,weatherlink.com 1.10,2013-04-11 19:03:00,
2013-04-11 15:18:00,30.2,20.0,30.05,ESE,105,10.0,-999.0,67,-99.99,,,0.00,weatherlink.com 1.10,2013-04-11 19:18:00,
2013-04-11 15:33:00,30.4,20.0,30.03,ESE,111,12.0,-999.0,65,-99.99,,,0.00,weatherlink.com 1.10,2013-04-11 19:33:00,
2013-04-11 15:48:00,30.9,19.0,30.03,East,90,13.0,-999.0,61,-99.99,,,0.00,weatherlink.com 1.10,2013-04-11 19:48:00,
2013-04-11 16:03:00,31.2,21.0,30.04,ENE,75,3.0,-999.0,65,-99.99,,,0.00,weatherlink.com 1.10,2013-04-11 20:03:00,
2013-04-11 16:18:00,31.4,20.0,30.03,ESE,103,13.0,-999.0,63,-99.99,,,0.00,weatherlink.com 1.10,2013-04-11 20:18:00,
2013-04-11 16:33:00,31.7,20.0,30.02,East,97,15.0,-999.0,63,-99.99,,,0.00,weatherlink.com 1.10,2013-04-11 20:33:00,
2013-04-11 16:48:00,31.8,21.0,30.01,East,86,4.0,-999.0,65,-99.99,,,0.00,weatherlink.com 1.10,2013-04-11 20:48:00,
2013-04-11 17:03:00,32.0,21.0,30.00,ESE,123,19.0,-999.0,64,-99.99,,,0.00,weatherlink.com 1.10,2013-04-11 21:03:00,
2013-04-11 17:18:00,32.1,20.0,30.01,ESE,105,16.0,-999.0,62,-99.99,,,0.00,weatherlink.com 1.10,2013-04-11 21:18:00,
2013-04-11 17:33:00,32.3,20.0,30.02,SE,132,18.0,-999.0,62,-99.99,,,0.00,weatherlink.com 1.10,2013-04-11 21:33:00,
2013-04-11 17:48:00,32.2,22.0,30.02,East,94,15.0,-999.0,65,-99.99,,,0.00,weatherlink.com 1.10,2013-04-11 21:48:00,
2013-04-11 18:03:00,32.1,21.0,30.04,East,95,13.0,-999.0,64,-99.99,,,0.00,weatherlink.com 1.10,2013-04-11 22:03:00,
2013-04-11 18:18:00,32.1,21.0,30.03,ESE,109,6.0,-999.0,64,-99.99,,,0.00,weatherlink.com 1.10,2013-04-11 22:18:00,
2013-04-11 18:33:00,32.1,21.0,30.01,East,80,5.0,-999.0,63,-99.99,,,0.00,weatherlink.com 1.10,2013-04-11 22:33:00,
2013-04-11 18:48:00,32.2,22.0,30.00,ESE,117,19.0,-999.0,65,-99.99,,,0.00,weatherlink.com 1.10,2013-04-11 22:48:00,
2013-04-11 19:03:00,32.4,21.0,30.01,East,85,17.0,-999.0,62,-99.99,,,0.00,weatherlink.com 1.10,2013-04-11 23:03:00,
2013-04-11 19:18:00,32.4,21.0,29.99,ESE,115,4.0,-999.0,64,-99.99,,,0.00,weatherlink.com 1.10,2013-04-11 23:18:00,
2013-04-11 19:33:00,-999.0,-99.9,29.98,North,-999,-999.0,-999.0,-999,-99.99,,,0.00,weatherlink.com 1.10,2013-04-11 23:33:00,
2013-04-11 19:48:00,-999.0,-99.9,29.98,North,-999,-999.0,-999.0,-999,-99.99,,,0.00,weatherlink.com 1.10,2013-04-11 23:48:00,
2013-04-11 20:03:00,-999.0,-99.9,29.98,North,-999,-999.0,-999.0,-999,-99.99,,,0.00,weatherlink.com 1.10,2013-04-12 00:03:00,
2013-04-11 20:18:00,-999.0,-99.9,29.98,North,-999,-999.0,-999.0,-999,-99.99,,,0.00,weatherlink.com 1.10,2013-04-12 00:18:00,
2013-04-11 20:33:00,-999.0,-99.9,29.98,North,-999,-999.0,-999.0,-999,-99.99,,,0.00,weatherlink.com 1.10,2013-04-12 00:33:00,
2013-04-11 20:48:00,-999.0,-99.9,29.99,North,-999,-999.0,-999.0,-999,-99.99,,,0.00,weatherlink.com 1.10,2013-04-12 00:48:00,
2013-04-11 21:03:00,-999.0,-99.9,29.97,North,-999,-999.0,-999.0,-999,-99.99,,,0.00,weatherlink.com 1.10,2013-04-12 01:03:00,
2013-04-11 21:18:00,-999.0,-99.9,29.96,North,-999,-999.0,-999.0,-999,-99.99,,,0.00,weatherlink.com 1.10,2013-04-12 01:18:00,
2013-04-11 21:33:00,-999.0,-99.9,29.97,North,-999,-999.0,-999.0,-999,-99.99,,,0.00,weatherlink.com 1.10,2013-04-12 01:33:00,
2013-04-11 21:49:00,-999.0,-99.9,29.96,North,-999,-999.0,-999.0,-999,-99.99,,,0.00,weatherlink.com 1.10,2013-04-12 01:49:00,
2013-04-11 22:04:00,-999.0,-99.9,29.96,North,-999,-999.0,-999.0,-999,-99.99,,,0.00,weatherlink.com 1.10,2013-04-12 02:04:00,
2013-04-11 22:19:00,-999.0,-99.9,29.96,North,-999,-999.0,-999.0,-999,-99.99,,,0.00,weatherlink.com 1.10,2013-04-12 02:19:00,
2013-04-11 22:34:00,-999.0,-99.9,29.95,North,-999,-999.0,-999.0,-999,-99.99,,,0.00,weatherlink.com 1.10,2013-04-12 02:34:00,
2013-04-11 22:49:00,-999.0,-99.9,29.94,North,-999,-999.0,-999.0,-999,-99.99,,,0.00,weatherlink.com 1.10,2013-04-12 02:49:00,
2013-04-11 23:04:00,-999.0,-99.9,29.94,North,-999,-999.0,-999.0,-999,-99.99,,,0.00,weatherlink.com 1.10,2013-04-12 03:04:00,
2013-04-11 23:19:00,-999.0,-99.9,29.93,North,-999,-999.0,-999.0,-999,-99.99,,,0.00,weatherlink.com 1.10,2013-04-12 03:19:00,
2013-04-11 23:34:00,-999.0,-99.9,29.93,North,-999,-999.0,-999.0,-999,-99.99,,,0.00,weatherlink.com 1.10,2013-04-12 03:34:00,
2013-04-11 23:49:00,-999.0,-99.9,29.93,North,-999,-999.0,-999.0,-999,-99.99,,,0.00,weatherlink.com 1.10,2013-04-12 03:49:00,